CFG282 HTZA-HKMO

Flight info

Callsign CFG282
Flight time 0h 37m
Altitude 21000
Route UVUKO UVUKO2A
Aircraft A339/H-SADE1E2E3GHIJ3J5M1P2RWXY/LB2D1

Departure

Time 2026-05-06 13:02
Airport Abeid Amani Karume International Airport (HTZA)

Arrival

Time 2026-05-06 13:39
Airport Moi International Airport (HKMO)
Time Latitude Longitude Altitude Speed Heading
2026-05-06 12:29 -6.22325 39.22236 62 ft 0 kts 355°
2026-05-06 12:49 -6.22327 39.22236 71 ft 1 kts 355°
2026-05-06 12:49 -6.22334 39.22236 63 ft 1 kts 355°
2026-05-06 12:49 -6.22341 39.22237 56 ft 1 kts 355°
2026-05-06 12:49 -6.22351 39.22238 57 ft 2 kts 355°
2026-05-06 12:50 -6.22362 39.22239 60 ft 2 kts 355°
2026-05-06 12:50 -6.22375 39.22240 58 ft 2 kts 355°
2026-05-06 12:50 -6.22387 39.22241 58 ft 2 kts 354°
2026-05-06 12:50 -6.22397 39.22243 58 ft 1 kts
2026-05-06 12:51 -6.22406 39.22244 58 ft 1 kts 21°
2026-05-06 12:51 -6.22407 39.22244 58 ft 0 kts 24°
2026-05-06 12:51 -6.22410 39.22243 58 ft 1 kts 31°
2026-05-06 12:51 -6.22418 39.22240 57 ft 1 kts 53°
2026-05-06 12:52 -6.22425 39.22233 54 ft 1 kts 74°
2026-05-06 12:52 -6.22427 39.22229 54 ft 0 kts 84°
2026-05-06 12:56 -6.22425 39.22245 56 ft 8 kts 83°
2026-05-06 12:56 -6.22401 39.22321 54 ft 9 kts 38°
2026-05-06 12:56 -6.22336 39.22329 57 ft 11 kts 352°
2026-05-06 12:56 -6.22220 39.22322 57 ft 23 kts 353°
2026-05-06 12:57 -6.22004 39.22300 64 ft 34 kts 355°
2026-05-06 12:57 -6.21821 39.22281 58 ft 15 kts 354°
2026-05-06 12:57 -6.21769 39.22326 57 ft 8 kts 85°
2026-05-06 12:57 -6.21765 39.22352 61 ft 0 kts 81°
2026-05-06 12:58 -6.21765 39.22354 62 ft 2 kts 81°
2026-05-06 12:58 -6.21757 39.22395 63 ft 8 kts 76°
2026-05-06 12:58 -6.21723 39.22421 61 ft 6 kts 19°
2026-05-06 12:58 -6.21660 39.22436 63 ft 15 kts
2026-05-06 12:59 -6.21523 39.22421 62 ft 22 kts 353°
2026-05-06 12:59 -6.21371 39.22404 59 ft 22 kts 353°
2026-05-06 12:59 -6.21214 39.22384 58 ft 21 kts 343°
2026-05-06 12:59 -6.21134 39.22345 57 ft 7 kts 355°
2026-05-06 13:00 -6.21118 39.22374 55 ft 4 kts 90°
2026-05-06 13:00 -6.21136 39.22384 57 ft 3 kts 149°
2026-05-06 13:00 -6.21153 39.22384 58 ft 2 kts 174°
2026-05-06 13:00 -6.21155 39.22385 58 ft 0 kts 174°
2026-05-06 13:01 -6.21182 39.22387 57 ft 27 kts 174°
2026-05-06 13:01 -6.21701 39.22442 66 ft 120 kts 174°
2026-05-06 13:01 -6.22760 39.22544 285 ft 170 kts 173°
2026-05-06 13:02 -6.23986 39.22645 1134 ft 181 kts 174°
2026-05-06 13:02 -6.25260 39.22759 2130 ft 191 kts 173°
2026-05-06 13:02 -6.26638 39.22925 2819 ft 210 kts 171°
2026-05-06 13:02 -6.28122 39.23276 3340 ft 230 kts 157°
2026-05-06 13:03 -6.29449 39.24257 3790 ft 246 kts 131°
2026-05-06 13:03 -6.30256 39.25823 4271 ft 261 kts 107°
2026-05-06 13:03 -6.30362 39.27387 4803 ft 270 kts 85°
2026-05-06 13:06 -6.30240 39.28016 5042 ft 272 kts 77°
2026-05-06 13:06 -6.29354 39.29697 5771 ft 279 kts 51°
2026-05-06 13:06 -6.27797 39.30854 6398 ft 290 kts 25°
2026-05-06 13:06 -6.25820 39.31226 7117 ft 293 kts 358°
2026-05-06 13:07 -6.23825 39.30831 7818 ft 294 kts 344°
2026-05-06 13:07 -6.21807 39.30356 8383 ft 300 kts 350°
2026-05-06 13:07 -6.19728 39.30158 9093 ft 300 kts 358°
2026-05-06 13:07 -6.17658 39.30219 9849 ft 299 kts
2026-05-06 13:08 -6.15567 39.30430 10324 ft 309 kts
2026-05-06 13:08 -6.13367 39.30723 10501 ft 329 kts
2026-05-06 13:08 -6.11042 39.31055 10692 ft 346 kts
2026-05-06 13:08 -6.08628 39.31399 11116 ft 353 kts
2026-05-06 13:09 -6.06189 39.31740 11712 ft 354 kts
2026-05-06 13:09 -6.03738 39.32077 12306 ft 356 kts
2026-05-06 13:09 -6.01265 39.32415 12851 ft 359 kts
2026-05-06 13:09 -5.98781 39.32752 13440 ft 361 kts
2026-05-06 13:10 -5.96281 39.33092 13961 ft 364 kts
2026-05-06 13:10 -5.93764 39.33433 14454 ft 366 kts
2026-05-06 13:10 -5.91235 39.33775 14936 ft 369 kts
2026-05-06 13:10 -5.88700 39.34118 15424 ft 371 kts
2026-05-06 13:11 -5.86142 39.34465 15920 ft 373 kts
2026-05-06 13:11 -5.83556 39.34815 16400 ft 376 kts
2026-05-06 13:11 -5.80959 39.35166 16882 ft 378 kts
2026-05-06 13:11 -5.78334 39.35521 17238 ft 384 kts
2026-05-06 13:12 -5.75683 39.35879 17735 ft 385 kts
2026-05-06 13:12 -5.73009 39.36241 18187 ft 388 kts
2026-05-06 13:12 -5.70331 39.36603 18579 ft 390 kts
2026-05-06 13:12 -5.67628 39.36968 18992 ft 392 kts
2026-05-06 13:13 -5.64914 39.37336 19371 ft 395 kts
2026-05-06 13:13 -5.62179 39.37703 19795 ft 397 kts
2026-05-06 13:13 -5.59423 39.38074 20185 ft 400 kts
2026-05-06 13:13 -5.56687 39.38442 20614 ft 401 kts
2026-05-06 13:14 -5.53906 39.38819 20845 ft 405 kts
2026-05-06 13:14 -5.51095 39.39200 20911 ft 413 kts
2026-05-06 13:14 -5.48214 39.39590 20909 ft 419 kts
2026-05-06 13:14 -5.45328 39.39979 20908 ft 418 kts
2026-05-06 13:15 -5.42439 39.40366 20911 ft 418 kts
2026-05-06 13:15 -5.39556 39.40754 20912 ft 419 kts
2026-05-06 13:15 -5.36670 39.41143 20912 ft 418 kts
2026-05-06 13:15 -5.33789 39.41531 20911 ft 418 kts
2026-05-06 13:16 -5.30891 39.41921 20909 ft 418 kts
2026-05-06 13:16 -5.28016 39.42309 20906 ft 417 kts
2026-05-06 13:16 -5.25141 39.42699 20906 ft 417 kts
2026-05-06 13:16 -5.22265 39.43084 20906 ft 416 kts
2026-05-06 13:17 -5.19391 39.43472 20906 ft 417 kts
2026-05-06 13:17 -5.16509 39.43859 20909 ft 417 kts
2026-05-06 13:17 -5.13638 39.44246 20906 ft 417 kts
2026-05-06 13:17 -5.10793 39.44630 20906 ft 417 kts
2026-05-06 13:18 -5.07920 39.45022 20907 ft 417 kts
2026-05-06 13:18 -5.05038 39.45410 20905 ft 417 kts
2026-05-06 13:18 -5.02162 39.45793 20906 ft 416 kts
2026-05-06 13:18 -4.99295 39.46179 20904 ft 417 kts
2026-05-06 13:19 -4.96424 39.46579 20891 ft 413 kts 12°
2026-05-06 13:19 -4.93696 39.47428 20904 ft 412 kts 26°
2026-05-06 13:19 -4.91193 39.48840 20905 ft 412 kts 33°
2026-05-06 13:19 -4.88791 39.50384 20908 ft 411 kts 34°
2026-05-06 13:20 -4.86376 39.51941 20996 ft 413 kts 33°
2026-05-06 13:20 -4.83944 39.53473 21335 ft 414 kts 33°
2026-05-06 13:20 -4.81460 39.55010 21386 ft 420 kts 33°
2026-05-06 13:20 -4.78980 39.56525 21262 ft 416 kts 32°
2026-05-06 13:21 -4.76520 39.58016 20983 ft 410 kts 32°
2026-05-06 13:21 -4.74073 39.59494 20908 ft 414 kts 32°
2026-05-06 13:21 -4.71583 39.61000 20904 ft 417 kts 32°
2026-05-06 13:21 -4.69111 39.62496 20904 ft 412 kts 32°
2026-05-06 13:22 -4.66654 39.63985 20808 ft 412 kts 32°
2026-05-06 13:22 -4.64202 39.65469 20572 ft 410 kts 32°
2026-05-06 13:22 -4.61766 39.66941 20338 ft 409 kts 32°
2026-05-06 13:22 -4.59369 39.68392 20109 ft 406 kts 32°
2026-05-06 13:23 -4.56954 39.69857 19727 ft 406 kts 32°
2026-05-06 13:23 -4.54530 39.71324 19048 ft 407 kts 31°
2026-05-06 13:23 -4.52099 39.72796 18374 ft 406 kts 31°
2026-05-06 13:23 -4.49698 39.74248 17719 ft 398 kts 31°
2026-05-06 13:24 -4.47352 39.75666 17177 ft 388 kts 31°
2026-05-06 13:24 -4.45065 39.77050 16583 ft 380 kts 31°
2026-05-06 13:24 -4.42821 39.78407 15983 ft 374 kts 31°
2026-05-06 13:24 -4.41351 39.79297 15541 ft 371 kts 31°
2026-05-06 13:25 -4.39161 39.80621 14977 ft 364 kts 31°
2026-05-06 13:25 -4.36999 39.81931 14380 ft 360 kts 30°
2026-05-06 13:25 -4.34863 39.83223 13799 ft 356 kts 30°
2026-05-06 13:25 -4.32749 39.84501 13170 ft 352 kts 30°
2026-05-06 13:26 -4.30668 39.85758 12568 ft 350 kts 30°
2026-05-06 13:26 -4.28558 39.87031 11936 ft 356 kts 30°
2026-05-06 13:26 -4.26426 39.88319 11363 ft 356 kts 30°
2026-05-06 13:26 -4.24318 39.89592 10790 ft 351 kts 31°
2026-05-06 13:27 -4.22248 39.90844 10342 ft 341 kts 31°
2026-05-06 13:27 -4.20303 39.92021 10165 ft 322 kts 31°
2026-05-06 13:27 -4.18440 39.93147 9917 ft 306 kts 31°
2026-05-06 13:27 -4.16622 39.94163 9748 ft 297 kts 21°
2026-05-06 13:28 -4.14579 39.94529 9631 ft 301 kts 357°
2026-05-06 13:28 -4.12562 39.94058 9489 ft 298 kts 335°
2026-05-06 13:28 -4.10746 39.93065 9110 ft 297 kts 326°
2026-05-06 13:28 -4.09031 39.91944 8724 ft 290 kts 324°
2026-05-06 13:29 -4.07368 39.90870 8376 ft 279 kts 326°
2026-05-06 13:29 -4.05747 39.89876 8035 ft 268 kts 327°
2026-05-06 13:29 -4.04114 39.88920 7691 ft 288 kts 328°
2026-05-06 13:29 -4.02286 39.87876 7440 ft 310 kts 328°
2026-05-06 13:30 -4.00407 39.86820 7303 ft 308 kts 328°
2026-05-06 13:30 -3.98569 39.85795 7034 ft 296 kts 329°
2026-05-06 13:30 -3.96786 39.84800 6299 ft 294 kts 329°
2026-05-06 13:30 -3.94992 39.83793 5378 ft 296 kts 329°
2026-05-06 13:31 -3.93221 39.82800 4893 ft 282 kts 329°
2026-05-06 13:31 -3.91577 39.81881 4676 ft 260 kts 329°
2026-05-06 13:31 -3.90012 39.81005 4315 ft 256 kts 328°
2026-05-06 13:31 -3.88487 39.80134 4059 ft 247 kts 324°
2026-05-06 13:32 -3.87293 39.78997 4006 ft 240 kts 300°
2026-05-06 13:32 -3.86464 39.77535 4004 ft 242 kts 293°
2026-05-06 13:32 -3.85667 39.76059 4007 ft 240 kts 294°
2026-05-06 13:32 -3.84858 39.74598 4006 ft 238 kts 294°
2026-05-06 13:33 -3.84067 39.73141 4001 ft 235 kts 289°
2026-05-06 13:33 -3.83880 39.71606 4019 ft 214 kts 253°
2026-05-06 13:33 -3.84490 39.70360 3879 ft 193 kts 225°
2026-05-06 13:33 -3.85453 39.69494 3657 ft 182 kts 210°
2026-05-06 13:34 -3.86508 39.68841 3412 ft 175 kts 205°
2026-05-06 13:34 -3.87564 39.68263 3200 ft 171 kts 205°
2026-05-06 13:34 -3.88593 39.67684 2988 ft 168 kts 205°
2026-05-06 13:34 -3.89593 39.67131 2760 ft 164 kts 204°
2026-05-06 13:35 -3.90571 39.66589 2560 ft 157 kts 205°
2026-05-06 13:35 -3.91486 39.66076 2366 ft 143 kts 203°
2026-05-06 13:35 -3.92322 39.65614 2186 ft 131 kts 202°
2026-05-06 13:35 -3.93138 39.65166 2021 ft 138 kts 202°
2026-05-06 13:36 -3.93931 39.64720 1821 ft 125 kts 205°
2026-05-06 13:36 -3.94756 39.64272 1667 ft 136 kts 204°
2026-05-06 13:36 -3.95556 39.63822 1448 ft 135 kts 203°
2026-05-06 13:36 -3.96401 39.63364 1310 ft 134 kts 203°
2026-05-06 13:37 -3.97176 39.62899 1132 ft 131 kts 208°
2026-05-06 13:37 -3.97967 39.62436 1034 ft 132 kts 203°
2026-05-06 13:37 -3.98821 39.62001 823 ft 138 kts 201°
2026-05-06 13:37 -3.99631 39.61544 595 ft 126 kts 202°
2026-05-06 13:38 -4.00401 39.61141 467 ft 130 kts 200°
2026-05-06 13:38 -4.01213 39.60691 296 ft 141 kts 204°
2026-05-06 13:38 -4.02039 39.60246 215 ft 120 kts 207°
2026-05-06 13:38 -4.02589 39.59936 219 ft 61 kts 208°
2026-05-06 13:39 -4.02869 39.59775 216 ft 47 kts 208°
2026-05-06 13:39 -4.03159 39.59614 215 ft 43 kts 209°
2026-05-06 13:39 -4.03292 39.59555 215 ft 7 kts 162°
2026-05-06 13:39 -4.03316 39.59575 212 ft 4 kts 123°
2026-05-06 13:40 -4.03326 39.59626 211 ft 12 kts 88°
2026-05-06 13:40 -4.03318 39.59733 211 ft 16 kts 86°
2026-05-06 13:40 -4.03322 39.59848 216 ft 17 kts 91°
2026-05-06 13:40 -4.03320 39.59969 215 ft 18 kts 88°
2026-05-06 13:41 -4.03270 39.60066 213 ft 14 kts 39°
2026-05-06 13:41 -4.03233 39.60089 214 ft 1 kts 32°
2026-05-06 13:41 -4.03229 39.60098 214 ft 2 kts 57°
2026-05-06 13:41 -4.03232 39.60111 216 ft 2 kts 93°
2026-05-06 13:42 -4.03245 39.60131 218 ft 5 kts 119°
2026-05-06 13:42 -4.03256 39.60154 214 ft 1 kts 117°
2026-05-06 13:42 -4.03266 39.60172 218 ft 0 kts 118°
2026-05-06 13:42 -4.03265 39.60170 218 ft 1 kts 119°
2026-05-06 13:43 -4.03262 39.60164 218 ft 0 kts 119°